Time,TemperatureF,DewpointF,PressureIn,WindDirection,WindDirectionDegrees,WindSpeedMPH,WindSpeedGustMPH,Humidity,HourlyPrecipIn,Conditions,Clouds,dailyrainin,SoftwareType,DateUTC
2013-08-07 00:01:00,66.0,61.0,29.96,SE,130,1.0,-999.0,83,-99.99,,,-99.99,,2013-08-07 04:01:00,
2013-08-07 00:11:00,66.0,61.0,29.96,SE,130,1.0,-999.0,83,-99.99,,,-99.99,,2013-08-07 04:11:00,
2013-08-07 00:21:00,66.0,61.0,29.96,SE,132,1.0,-999.0,83,-99.99,,,-99.99,,2013-08-07 04:21:00,
2013-08-07 00:33:00,66.0,61.0,29.95,SE,132,1.0,-999.0,84,-99.99,,,-99.99,,2013-08-07 04:33:00,
2013-08-07 00:43:00,66.0,61.0,29.95,SE,132,1.0,-999.0,84,-99.99,,,-99.99,,2013-08-07 04:43:00,
2013-08-07 00:52:00,66.0,61.0,29.94,SE,132,1.0,-999.0,84,-99.99,,,-99.99,,2013-08-07 04:52:00,
2013-08-07 01:02:00,66.0,61.0,29.94,SE,142,1.0,-999.0,83,-99.99,,,-99.99,,2013-08-07 05:02:00,
2013-08-07 01:11:00,66.0,60.0,29.94,SE,144,2.0,-999.0,82,-99.99,,,-99.99,,2013-08-07 05:11:00,
2013-08-07 01:22:00,66.0,60.0,29.94,SE,144,2.0,-999.0,82,-99.99,,,-99.99,,2013-08-07 05:22:00,
2013-08-07 01:32:00,66.0,60.0,29.94,SSE,154,1.0,-999.0,81,-99.99,,,-99.99,,2013-08-07 05:32:00,
2013-08-07 01:43:00,66.0,60.0,29.94,SSE,154,1.0,-999.0,80,-99.99,,,-99.99,,2013-08-07 05:43:00,
2013-08-07 01:52:00,66.0,60.0,29.94,SSE,154,1.0,-999.0,80,-99.99,,,-99.99,,2013-08-07 05:52:00,
2013-08-07 02:02:00,66.0,60.0,29.95,SSE,154,1.0,-999.0,80,-99.99,,,-99.99,,2013-08-07 06:02:00,
2013-08-07 02:11:00,67.0,60.0,29.96,SSE,153,1.0,-999.0,79,-99.99,,,-99.99,,2013-08-07 06:11:00,
2013-08-07 02:22:00,67.0,60.0,29.96,SSE,153,1.0,-999.0,79,-99.99,,,-99.99,,2013-08-07 06:22:00,
2013-08-07 02:32:00,67.0,60.0,29.95,SSE,153,1.0,-999.0,78,-99.99,,,-99.99,,2013-08-07 06:32:00,
2013-08-07 02:43:00,66.0,59.0,29.95,SSE,153,0.0,-999.0,79,-99.99,,,-99.99,,2013-08-07 06:43:00,
2013-08-07 02:52:00,66.0,59.0,29.95,SSE,153,0.0,-999.0,79,-99.99,,,-99.99,,2013-08-07 06:52:00,
2013-08-07 03:01:00,66.0,59.0,29.95,SSE,153,0.0,-999.0,79,-99.99,,,-99.99,,2013-08-07 07:01:00,
2013-08-07 03:12:00,66.0,60.0,29.95,SSE,153,0.0,-999.0,80,-99.99,,,-99.99,,2013-08-07 07:12:00,
2013-08-07 03:22:00,66.0,60.0,29.95,SSE,153,0.0,-999.0,80,-99.99,,,-99.99,,2013-08-07 07:22:00,
2013-08-07 03:33:00,66.0,60.0,29.95,SSE,153,0.0,-999.0,80,-99.99,,,-99.99,,2013-08-07 07:33:00,
2013-08-07 03:43:00,66.0,60.0,29.95,SSE,153,0.0,-999.0,80,-99.99,,,-99.99,,2013-08-07 07:43:00,
2013-08-07 03:52:00,66.0,60.0,29.95,SSE,153,0.0,-999.0,80,-99.99,,,-99.99,,2013-08-07 07:52:00,
2013-08-07 04:02:00,66.0,60.0,29.95,SSE,153,0.0,-999.0,80,-99.99,,,-99.99,,2013-08-07 08:02:00,
2013-08-07 04:22:00,66.0,60.0,29.95,SSE,153,0.0,-999.0,80,-99.99,,,-99.99,,2013-08-07 08:22:00,
2013-08-07 04:32:00,66.0,60.0,29.95,SSE,153,0.0,-999.0,81,-99.99,,,-99.99,,2013-08-07 08:32:00,
2013-08-07 04:52:00,66.0,60.0,29.95,SSE,153,1.0,-999.0,81,-99.99,,,-99.99,,2013-08-07 08:52:00,
2013-08-07 05:02:00,65.0,59.0,29.94,SSE,153,1.0,-999.0,82,-99.99,,,-99.99,,2013-08-07 09:02:00,
2013-08-07 05:12:00,65.0,60.0,29.94,SSE,153,1.0,-999.0,83,-99.99,,,-99.99,,2013-08-07 09:12:00,
2013-08-07 05:22:00,65.0,60.0,29.94,SSE,153,1.0,-999.0,83,-99.99,,,-99.99,,2013-08-07 09:22:00,
2013-08-07 05:32:00,65.0,60.0,29.94,SSE,159,2.0,-999.0,83,-99.99,,,-99.99,,2013-08-07 09:32:00,
2013-08-07 05:43:00,65.0,60.0,29.94,SSE,159,2.0,-999.0,83,-99.99,,,-99.99,,2013-08-07 09:43:00,
2013-08-07 05:54:00,65.0,60.0,29.94,SSE,159,1.0,-999.0,83,-99.99,,,-99.99,,2013-08-07 09:54:00,
2013-08-07 06:01:00,65.0,60.0,29.94,SSE,162,1.0,-999.0,84,-99.99,,,-99.99,,2013-08-07 10:01:00,
2013-08-07 06:11:00,65.0,60.0,29.94,SSE,162,1.0,-999.0,84,-99.99,,,-99.99,,2013-08-07 10:11:00,
2013-08-07 06:22:00,64.0,59.0,29.95,SSE,162,1.0,-999.0,84,-99.99,,,-99.99,,2013-08-07 10:22:00,
2013-08-07 06:32:00,64.0,59.0,29.95,SSE,162,0.0,-999.0,84,-99.99,,,-99.99,,2013-08-07 10:32:00,
2013-08-07 06:52:00,64.0,59.0,29.95,SSE,162,0.0,-999.0,84,-99.99,,,-99.99,,2013-08-07 10:52:00,
2013-08-07 07:01:00,64.0,59.0,29.95,SSE,162,0.0,-999.0,84,-99.99,,,-99.99,,2013-08-07 11:01:00,
2013-08-07 07:11:00,64.0,59.0,29.95,SSE,162,0.0,-999.0,84,-99.99,,,-99.99,,2013-08-07 11:11:00,
2013-08-07 07:22:00,64.0,59.0,29.96,SSE,162,0.0,-999.0,84,-99.99,,,-99.99,,2013-08-07 11:22:00,
2013-08-07 07:43:00,65.0,60.0,29.95,SSE,162,0.0,-999.0,85,-99.99,,,-99.99,,2013-08-07 11:43:00,
2013-08-07 07:52:00,65.0,60.0,29.96,SSE,162,1.0,-999.0,84,-99.99,,,-99.99,,2013-08-07 11:52:00,
2013-08-07 08:02:00,67.0,61.0,29.96,SSE,162,1.0,-999.0,82,-99.99,,,-99.99,,2013-08-07 12:02:00,
2013-08-07 08:11:00,67.0,61.0,29.95,SSE,168,1.0,-999.0,81,-99.99,,,-99.99,,2013-08-07 12:11:00,
2013-08-07 08:22:00,67.0,61.0,29.95,SSE,168,1.0,-999.0,81,-99.99,,,-99.99,,2013-08-07 12:22:00,
2013-08-07 08:33:00,68.0,62.0,29.95,South,170,1.0,-999.0,80,-99.99,,,-99.99,,2013-08-07 12:33:00,
2013-08-07 08:43:00,68.0,62.0,29.95,SSE,155,2.0,-999.0,80,-99.99,,,-99.99,,2013-08-07 12:43:00,
2013-08-07 08:52:00,68.0,62.0,29.95,SSE,155,2.0,-999.0,80,-99.99,,,-99.99,,2013-08-07 12:52:00,
2013-08-07 09:02:00,69.0,62.0,29.94,South,173,2.0,-999.0,79,-99.99,,,-99.99,,2013-08-07 13:02:00,
2013-08-07 09:12:00,70.0,62.0,29.94,SSE,162,3.0,-999.0,77,-99.99,,,-99.99,,2013-08-07 13:12:00,
2013-08-07 09:22:00,70.0,62.0,29.94,SSE,162,3.0,-999.0,77,-99.99,,,-99.99,,2013-08-07 13:22:00,
2013-08-07 09:32:00,71.0,63.0,29.94,SSE,152,4.0,-999.0,76,-99.99,,,-99.99,,2013-08-07 13:32:00,
2013-08-07 09:44:00,72.0,64.0,29.93,SW,217,3.0,-999.0,75,-99.99,,,-99.99,,2013-08-07 13:44:00,
2013-08-07 09:53:00,72.0,64.0,29.93,SW,217,3.0,-999.0,75,-99.99,,,-99.99,,2013-08-07 13:53:00,
2013-08-07 10:02:00,73.0,63.0,29.93,SSE,154,6.0,-999.0,72,-99.99,,,-99.99,,2013-08-07 14:02:00,
2013-08-07 10:22:00,73.0,64.0,29.93,SSE,166,7.0,-999.0,73,-99.99,,,-99.99,,2013-08-07 14:22:00,
2013-08-07 10:33:00,74.0,64.0,29.93,WSW,238,4.0,-999.0,72,-99.99,,,-99.99,,2013-08-07 14:33:00,
2013-08-07 11:02:00,74.0,65.0,29.93,SSE,150,2.0,-999.0,73,-99.99,,,-99.99,,2013-08-07 15:02:00,
2013-08-07 11:22:00,75.0,65.0,29.94,SSW,205,7.0,-999.0,72,-99.99,,,-99.99,,2013-08-07 15:22:00,
2013-08-07 11:33:00,75.0,65.0,29.93,SSW,197,6.0,-999.0,70,-99.99,,,-99.99,,2013-08-07 15:33:00,
2013-08-07 11:53:00,75.0,65.0,29.92,South,188,8.0,-999.0,70,-99.99,,,-99.99,,2013-08-07 15:53:00,
2013-08-07 12:02:00,75.0,65.0,29.93,SSE,163,8.0,-999.0,70,-99.99,,,-99.99,,2013-08-07 16:02:00,
2013-08-07 12:11:00,75.0,65.0,29.93,SSE,163,8.0,-999.0,70,-99.99,,,-99.99,,2013-08-07 16:11:00,
2013-08-07 12:22:00,76.0,65.0,29.93,South,188,6.0,-999.0,70,-99.99,,,-99.99,,2013-08-07 16:22:00,
2013-08-07 12:33:00,76.0,65.0,29.93,SSE,158,8.0,-999.0,69,-99.99,,,-99.99,,2013-08-07 16:33:00,
2013-08-07 12:43:00,76.0,65.0,29.92,South,184,6.0,-999.0,70,-99.99,,,-99.99,,2013-08-07 16:43:00,
2013-08-07 12:53:00,76.0,65.0,29.92,South,184,6.0,-999.0,70,-99.99,,,-99.99,,2013-08-07 16:53:00,
2013-08-07 13:02:00,77.0,65.0,29.92,South,181,9.0,-999.0,67,-99.99,,,-99.99,,2013-08-07 17:02:00,
2013-08-07 13:11:00,77.0,66.0,29.92,South,184,7.0,-999.0,68,-99.99,,,-99.99,,2013-08-07 17:11:00,
2013-08-07 13:23:00,77.0,66.0,29.92,South,184,7.0,-999.0,68,-99.99,,,-99.99,,2013-08-07 17:23:00,
2013-08-07 13:33:00,78.0,67.0,29.91,South,175,5.0,-999.0,68,-99.99,,,-99.99,,2013-08-07 17:33:00,
2013-08-07 13:43:00,78.0,66.0,29.90,South,185,5.0,-999.0,66,-99.99,,,-99.99,,2013-08-07 17:43:00,
2013-08-07 13:52:00,78.0,66.0,29.90,South,185,5.0,-999.0,66,-99.99,,,-99.99,,2013-08-07 17:52:00,
2013-08-07 14:02:00,78.0,66.0,29.89,South,186,7.0,-999.0,66,-99.99,,,-99.99,,2013-08-07 18:02:00,
2013-08-07 14:22:00,78.0,65.0,29.91,SSE,148,5.0,-999.0,64,-99.99,,,-99.99,,2013-08-07 18:22:00,
2013-08-07 14:32:00,78.0,65.0,29.91,SSE,148,5.0,-999.0,64,-99.99,,,-99.99,,2013-08-07 18:32:00,
2013-08-07 14:43:00,79.0,66.0,29.89,SSW,211,6.0,-999.0,64,-99.99,,,-99.99,,2013-08-07 18:43:00,
2013-08-07 14:52:00,79.0,66.0,29.89,SSW,211,6.0,-999.0,64,-99.99,,,-99.99,,2013-08-07 18:52:00,
2013-08-07 15:01:00,79.0,66.0,29.89,SSW,200,4.0,-999.0,64,-99.99,,,-99.99,,2013-08-07 19:01:00,
2013-08-07 15:11:00,79.0,66.0,29.89,SSE,161,4.0,-999.0,65,-99.99,,,-99.99,,2013-08-07 19:11:00,
2013-08-07 15:22:00,79.0,66.0,29.89,SSE,161,4.0,-999.0,65,-99.99,,,-99.99,,2013-08-07 19:22:00,
2013-08-07 15:32:00,79.0,66.0,29.88,SSW,205,8.0,-999.0,65,-99.99,,,-99.99,,2013-08-07 19:32:00,
2013-08-07 15:52:00,79.0,66.0,29.88,South,191,4.0,-999.0,64,-99.99,,,-99.99,,2013-08-07 19:52:00,
2013-08-07 16:02:00,79.0,66.0,29.88,SSE,159,7.0,-999.0,64,-99.99,,,-99.99,,2013-08-07 20:02:00,
2013-08-07 16:22:00,80.0,67.0,29.87,South,185,5.0,-999.0,64,-99.99,,,-99.99,,2013-08-07 20:22:00,
2013-08-07 16:33:00,80.0,68.0,29.86,SSE,152,5.0,-999.0,66,-99.99,,,-99.99,,2013-08-07 20:33:00,
2013-08-07 16:52:00,79.0,67.0,29.86,SSW,197,4.0,-999.0,67,-99.99,,,-99.99,,2013-08-07 20:52:00,
2013-08-07 17:02:00,79.0,66.0,29.86,SSW,194,3.0,-999.0,65,-99.99,,,-99.99,,2013-08-07 21:02:00,
2013-08-07 17:11:00,79.0,68.0,29.86,South,171,4.0,-999.0,68,-99.99,,,-99.99,,2013-08-07 21:11:00,
2013-08-07 17:22:00,79.0,68.0,29.86,South,171,4.0,-999.0,68,-99.99,,,-99.99,,2013-08-07 21:22:00,
2013-08-07 17:32:00,79.0,67.0,29.85,SE,131,3.0,-999.0,67,-99.99,,,-99.99,,2013-08-07 21:32:00,
2013-08-07 17:43:00,79.0,68.0,29.85,SSE,149,6.0,-999.0,68,-99.99,,,-99.99,,2013-08-07 21:43:00,
2013-08-07 17:52:00,79.0,68.0,29.85,SSE,149,6.0,-999.0,68,-99.99,,,-99.99,,2013-08-07 21:52:00,
2013-08-07 18:01:00,79.0,68.0,29.85,SSE,150,5.0,-999.0,68,-99.99,,,-99.99,,2013-08-07 22:01:00,
2013-08-07 18:22:00,78.0,67.0,29.84,SE,137,5.0,-999.0,70,-99.99,,,-99.99,,2013-08-07 22:22:00,
2013-08-07 18:32:00,78.0,67.0,29.84,SE,137,5.0,-999.0,70,-99.99,,,-99.99,,2013-08-07 22:32:00,
2013-08-07 18:52:00,76.0,66.0,29.85,ESE,123,5.0,-999.0,72,-99.99,,,-99.99,,2013-08-07 22:52:00,
2013-08-07 19:01:00,76.0,67.0,29.85,SSE,165,6.0,-999.0,73,-99.99,,,-99.99,,2013-08-07 23:01:00,
2013-08-07 19:22:00,76.0,67.0,29.85,SSE,159,5.0,-999.0,74,-99.99,,,-99.99,,2013-08-07 23:22:00,
2013-08-07 19:32:00,76.0,67.0,29.85,SSE,149,4.0,-999.0,74,-99.99,,,-99.99,,2013-08-07 23:32:00,
2013-08-07 19:43:00,76.0,67.0,29.84,SSE,157,3.0,-999.0,74,-99.99,,,-99.99,,2013-08-07 23:43:00,
2013-08-07 19:52:00,76.0,67.0,29.84,SSE,157,3.0,-999.0,74,-99.99,,,-99.99,,2013-08-07 23:52:00,
2013-08-07 20:01:00,75.0,66.0,29.84,SE,138,3.0,-999.0,74,-99.99,,,-99.99,,2013-08-08 00:01:00,
2013-08-07 20:22:00,75.0,67.0,29.84,SSE,163,3.0,-999.0,75,-99.99,,,-99.99,,2013-08-08 00:22:00,
2013-08-07 20:32:00,75.0,67.0,29.84,SSE,163,3.0,-999.0,75,-99.99,,,-99.99,,2013-08-08 00:32:00,
2013-08-07 20:43:00,75.0,67.0,29.84,SE,141,3.0,-999.0,76,-99.99,,,-99.99,,2013-08-08 00:43:00,
2013-08-07 20:52:00,74.0,66.0,29.84,South,179,3.0,-999.0,77,-99.99,,,-99.99,,2013-08-08 00:52:00,
2013-08-07 21:02:00,74.0,66.0,29.84,South,179,3.0,-999.0,77,-99.99,,,-99.99,,2013-08-08 01:02:00,
2013-08-07 21:11:00,74.0,67.0,29.85,SSE,157,2.0,-999.0,78,-99.99,,,-99.99,,2013-08-08 01:11:00,
2013-08-07 21:22:00,74.0,67.0,29.85,SSE,157,2.0,-999.0,78,-99.99,,,-99.99,,2013-08-08 01:22:00,
2013-08-07 21:32:00,73.0,66.0,29.85,SSE,161,2.0,-999.0,79,-99.99,,,-99.99,,2013-08-08 01:32:00,
2013-08-07 21:43:00,73.0,66.0,29.85,SE,143,1.0,-999.0,80,-99.99,,,-99.99,,2013-08-08 01:43:00,
2013-08-07 21:52:00,72.0,66.0,29.85,SSE,168,1.0,-999.0,81,-99.99,,,-99.99,,2013-08-08 01:52:00,
2013-08-07 22:02:00,72.0,66.0,29.85,SSE,155,1.0,-999.0,82,-99.99,,,-99.99,,2013-08-08 02:02:00,
2013-08-07 22:22:00,72.0,66.0,29.85,SSE,161,1.0,-999.0,82,-99.99,,,-99.99,,2013-08-08 02:22:00,
2013-08-07 22:32:00,71.0,66.0,29.86,SE,142,0.0,-999.0,83,-99.99,,,-99.99,,2013-08-08 02:32:00,
2013-08-07 22:43:00,71.0,66.0,29.86,SSE,155,1.0,-999.0,84,-99.99,,,-99.99,,2013-08-08 02:43:00,
2013-08-07 22:52:00,71.0,66.0,29.86,SSE,155,1.0,-999.0,84,-99.99,,,-99.99,,2013-08-08 02:52:00,
2013-08-07 23:02:00,70.0,65.0,29.86,SSE,167,0.0,-999.0,85,-99.99,,,-99.99,,2013-08-08 03:02:00,
2013-08-07 23:12:00,70.0,65.0,29.86,SSE,167,0.0,-999.0,85,-99.99,,,-99.99,,2013-08-08 03:12:00,
2013-08-07 23:22:00,70.0,65.0,29.87,SSE,166,1.0,-999.0,85,-99.99,,,-99.99,,2013-08-08 03:22:00,
2013-08-07 23:32:00,70.0,65.0,29.86,SSE,161,1.0,-999.0,85,-99.99,,,-99.99,,2013-08-08 03:32:00,
2013-08-07 23:43:00,70.0,65.0,29.86,SSE,161,1.0,-999.0,85,-99.99,,,-99.99,,2013-08-08 03:43:00,
2013-08-07 23:52:00,70.0,66.0,29.86,SSE,161,0.0,-999.0,86,-99.99,,,-99.99,,2013-08-08 03:52:00,